,,Stat6,,Stat2,,Stat8,,Stat9,,Stat10,,Wind1,,Wind1,
time,status,PA1M_AVG,status,PR1M_SUM,status,RH1M_AVG,status,SR1M_AVG,status,TA1M_AVG,status,W1dAve1m,status,W1sAve1m,
2006-12-28, 17:52:00,VALID,918.462,VALID,0,VALID,97.0443,VALID,288.538,VALID,22.8709,VALID,273,VALID,0.673692,
2006-12-28, 17:53:00,VALID,918.451,VALID,0,VALID,97.1455,VALID,285.736,VALID,22.8868,VALID,276,VALID,0.569949,
2006-12-28, 17:54:00,VALID,918.442,VALID,0,VALID,96.4703,VALID,288.097,VALID,22.9317,VALID,282,VALID,1.31559,
2006-12-28, 17:55:00,VALID,918.44,VALID,0,VALID,96.5644,VALID,292.529,VALID,22.9032,VALID,279,VALID,0.689453,
2006-12-28, 17:56:00,VALID,918.433,VALID,0,VALID,96.5199,VALID,297.963,VALID,22.9226,VALID,266,VALID,1.09077,
2006-12-28, 17:57:00,VALID,918.425,VALID,0,VALID,96.4385,VALID,300.866,VALID,22.8886,VALID,275,VALID,0.934201,
2006-12-28, 17:58:00,VALID,918.42,VALID,0,VALID,96.2643,VALID,299.508,VALID,22.868,VALID,258,VALID,0.794212,
2006-12-28, 17:59:00,VALID,918.421,VALID,0,VALID,95.9578,VALID,296.638,VALID,22.8296,VALID,231,VALID,0.300686,
2006-12-28, 18:00:00,VALID,918.418,VALID,0,VALID,96.2401,VALID,294.736,VALID,22.8548,VALID,245,VALID,0.336914,
2006-12-28, 18:01:00,VALID,918.397,VALID,0,VALID,95.3436,VALID,293.021,VALID,22.7779,VALID,221,VALID,0.403646,
2006-12-28, 18:02:00,VALID,918.39,VALID,0,VALID,95.734,VALID,290.967,VALID,22.7559,VALID,248,VALID,0.432165,
2006-12-28, 18:03:00,VALID,918.38,VALID,0,VALID,96.0583,VALID,287.485,VALID,22.7976,VALID,263,VALID,0.830669,
2006-12-28, 18:04:00,VALID,918.374,VALID,0,VALID,96.6178,VALID,287.672,VALID,22.8592,VALID,248,VALID,0.557106,
2006-12-28, 18:05:00,VALID,918.366,VALID,0,VALID,96.7513,VALID,289.353,VALID,22.9197,VALID,259,VALID,0.367535,
2006-12-28, 18:06:00,VALID,918.35,VALID,0,VALID,95.8879,VALID,291.357,VALID,22.8645,VALID,224,VALID,0.273983,
2006-12-28, 18:07:00,VALID,918.359,VALID,0,VALID,96.38,VALID,293.31,VALID,22.8974,VALID,266,VALID,0.585405,
2006-12-28, 18:08:00,VALID,918.339,VALID,0,VALID,96.0532,VALID,295.042,VALID,22.8971,VALID,208,VALID,0.422461,
2006-12-28, 18:09:00,VALID,918.348,VALID,0,VALID,95.996,VALID,297.504,VALID,22.8886,VALID,285,VALID,0.402699,
2006-12-28, 18:10:00,VALID,918.337,VALID,0,VALID,96.2643,VALID,300.764,VALID,22.9599,VALID,256,VALID,0.639137,
2006-12-28, 18:11:00,VALID,918.328,VALID,0,VALID,96.8632,VALID,303.804,VALID,23.0574,VALID,270,VALID,0.467685,
2006-12-28, 18:12:00,VALID,918.328,VALID,0,VALID,96.1626,VALID,309.374,VALID,23.0888,VALID,218,VALID,0.208519,
2006-12-28, 18:13:00,VALID,918.319,VALID,0,VALID,94.1356,VALID,316.642,VALID,22.9843,VALID,267,VALID,0.632622,
2006-12-28, 18:14:00,VALID,918.31,VALID,0,VALID,94.7384,VALID,328.885,VALID,22.8895,VALID,21,VALID,0.136533,
2006-12-28, 18:15:00,VALID,918.312,VALID,0,VALID,95.9947,VALID,343.301,VALID,22.9552,VALID,7,VALID,0.19215,
2006-12-28, 18:16:00,VALID,918.299,VALID,0,VALID,96.0176,VALID,357.09,VALID,23.0257,VALID,328,VALID,0.206473,
2006-12-28, 18:17:00,VALID,918.291,VALID,0,VALID,94.7155,VALID,366.022,VALID,23.0322,VALID,328,VALID,0.156428,
2006-12-28, 18:18:00,VALID,918.289,VALID,0,VALID,94.2729,VALID,366.973,VALID,23.0642,VALID,300,VALID,0.338844,
2006-12-28, 18:19:00,VALID,918.283,VALID,0,VALID,95.3068,VALID,359.909,VALID,23.1156,VALID,261,VALID,0.194931,
2006-12-28, 18:20:00,VALID,918.296,VALID,0,VALID,94.8477,VALID,345.034,VALID,23.2104,VALID,261,VALID,0.188616,
2006-12-28, 18:21:00,VALID,918.286,VALID,0,VALID,94.9011,VALID,325.302,VALID,23.2847,VALID,267,VALID,0.119913,
2006-12-28, 18:22:00,VALID,918.282,VALID,0,VALID,94.5603,VALID,305.4,VALID,23.3426,VALID,265,VALID,0.269271,
2006-12-28, 18:23:00,VALID,918.294,VALID,0,VALID,93.7605,VALID,291.306,VALID,23.3232,VALID,202,VALID,0.394176,
2006-12-28, 18:24:00,VALID,918.29,VALID,0,VALID,94.1153,VALID,282.069,VALID,23.3423,VALID,265,VALID,0.786328,
2006-12-28, 18:25:00,VALID,918.28,VALID,0,VALID,93.2964,VALID,269.842,VALID,23.2774,VALID,262,VALID,0.73165,
2006-12-28, 18:26:00,VALID,918.274,VALID,0,VALID,93.6753,VALID,254.356,VALID,23.1902,VALID,239,VALID,0.630774,
2006-12-28, 18:27:00,VALID,918.265,VALID,0,VALID,94.3759,VALID,237.613,VALID,23.0965,VALID,186,VALID,0.288517,
2006-12-28, 18:28:00,VALID,918.267,VALID,0,VALID,94.9787,VALID,222.126,VALID,23.048,VALID,187,VALID,0.10992,
2006-12-28, 18:29:00,VALID,918.248,VALID,0,VALID,95.0728,VALID,214.026,VALID,23.048,VALID,221,VALID,0.237282,
2006-12-28, 18:30:00,VALID,918.238,VALID,0,VALID,95.5763,VALID,220.004,VALID,23.1065,VALID,246,VALID,0.125558,
2006-12-28, 18:31:00,VALID,918.236,VALID,0,VALID,95.1567,VALID,234.709,VALID,23.1024,VALID,246,VALID,0.157203,
2006-12-28, 18:32:00,VALID,918.211,VALID,0,VALID,95.5153,VALID,259.79,VALID,23.1549,VALID,245,VALID,0.155342,
2006-12-28, 18:33:00,VALID,918.204,VALID,0,VALID,95.1389,VALID,286.042,VALID,23.2066,VALID,227,VALID,0.241097,
2006-12-28, 18:34:00,VALID,918.195,VALID,0,VALID,94.7803,VALID,303.176,VALID,23.1579,VALID,179,VALID,0.216518,
2006-12-28, 18:35:00,VALID,918.183,VALID,0,VALID,95.4594,VALID,310.783,VALID,23.2577,VALID,234,VALID,0.191034,
2006-12-28, 18:36:00,VALID,918.175,VALID,0,VALID,95.2368,VALID,307.37,VALID,23.2968,VALID,246,VALID,0.253348,
2006-12-28, 18:37:00,VALID,918.17,VALID,0,VALID,95.1516,VALID,302.632,VALID,23.384,VALID,244,VALID,0.248935,
2006-12-28, 18:38:00,VALID,918.146,VALID,0,VALID,94.1916,VALID,307.421,VALID,23.4163,VALID,242,VALID,0.498285,
2006-12-28, 18:39:00,VALID,918.144,VALID,0,VALID,93.8139,VALID,316.064,VALID,23.3969,VALID,225,VALID,0.520167,
2006-12-28, 18:40:00,VALID,918.127,VALID,0,VALID,94.025,VALID,324.419,VALID,23.4521,VALID,274,VALID,0.437891,
2006-12-28, 18:41:00,VALID,918.136,VALID,0,VALID,93.3994,VALID,324.062,VALID,23.426,VALID,289,VALID,0.469122,
2006-12-28, 18:42:00,VALID,918.134,VALID,0,VALID,94.175,VALID,312.617,VALID,23.4286,VALID,266,VALID,0.366477,
2006-12-28, 18:43:00,VALID,918.123,VALID,0,VALID,94.6125,VALID,303.193,VALID,23.5558,VALID,288,VALID,0.708757,
2006-12-28, 18:44:00,VALID,918.107,VALID,0,VALID,92.026,VALID,299.287,VALID,23.5526,VALID,285,VALID,1.21396,
2006-12-28, 18:45:00,VALID,918.101,VALID,0,VALID,93.0013,VALID,285.584,VALID,23.4454,VALID,276,VALID,1.24721,
2006-12-28, 18:46:00,VALID,918.1,VALID,0,VALID,93.3294,VALID,258.465,VALID,23.4354,VALID,277,VALID,0.481944,
2006-12-28, 18:47:00,VALID,918.096,VALID,0,VALID,93.2633,VALID,231.398,VALID,23.4545,VALID,336,VALID,0.323611,
2006-12-28, 18:48:00,VALID,918.087,VALID,0,VALID,92.7801,VALID,208.168,VALID,23.3743,VALID,67,VALID,0.336825,
2006-12-28, 18:49:00,VALID,918.062,VALID,0,VALID,93.3218,VALID,188.657,VALID,23.3834,VALID,255,VALID,0.529474,
2006-12-28, 18:50:00,VALID,918.055,VALID,0,VALID,93.0141,VALID,169.554,VALID,23.3998,VALID,158,VALID,0.394159,
2006-12-28, 18:51:00,VALID,918.026,VALID,0,VALID,92.6021,VALID,150.145,VALID,23.354,VALID,99,VALID,0.6337,
2006-12-28, 18:52:00,VALID,918.008,VALID,0,VALID,92.1684,VALID,137.358,VALID,23.2157,VALID,146,VALID,0.584162,
2006-12-28, 18:53:00,VALID,917.998,VALID,0,VALID,93.4718,VALID,131.686,VALID,23.1285,VALID,266,VALID,0.822569,
2006-12-28, 18:54:00,VALID,917.982,VALID,0,VALID,94.0606,VALID,130.413,VALID,23.135,VALID,248,VALID,0.517187,
2006-12-28, 18:55:00,VALID,917.986,VALID,0,VALID,93.9245,VALID,129.784,VALID,23.09,VALID,256,VALID,0.512277,
2006-12-28, 18:56:00,VALID,917.97,VALID,0,VALID,94.0517,VALID,138.682,VALID,23.0157,VALID,270,VALID,0.860973,
2006-12-28, 18:57:00,VALID,917.955,VALID,0,VALID,94.4497,VALID,152.98,VALID,23.0169,VALID,275,VALID,1.08376,
2006-12-28, 18:58:00,VALID,917.952,VALID,0,VALID,93.983,VALID,171.693,VALID,22.9197,VALID,271,VALID,0.478277,
2006-12-28, 18:59:00,VALID,917.943,VALID,0,VALID,94.4255,VALID,191.51,VALID,22.8848,VALID,273,VALID,0.37429,
2006-12-28, 19:00:00,VALID,917.928,VALID,0,VALID,95.0194,VALID,212.345,VALID,22.9174,VALID,270,VALID,0.560082,
2006-12-28, 19:01:00,VALID,917.911,VALID,0,VALID,95.247,VALID,234.42,VALID,22.9914,VALID,275,VALID,0.776928,
2006-12-28, 19:02:00,VALID,917.901,VALID,0,VALID,95.0067,VALID,261.25,VALID,23.0665,VALID,265,VALID,0.266667,
2006-12-28, 19:03:00,VALID,917.884,VALID,0,VALID,93.9144,VALID,273.918,VALID,23.0621,VALID,281,VALID,1.22275,
2006-12-28, 19:04:00,VALID,917.874,VALID,0,VALID,93.9385,VALID,265.869,VALID,23.0621,VALID,182,VALID,0.816964,
2006-12-28, 19:05:00,VALID,917.85,VALID,0,VALID,92.8602,VALID,241.943,VALID,22.9141,VALID,152,VALID,0.90625,
2006-12-28, 19:06:00,VALID,917.852,VALID,0,VALID,93.7986,VALID,202.462,VALID,22.8592,VALID,72,VALID,0.292969,
2006-12-28, 19:07:00,VALID,917.842,VALID,0,VALID,94.0835,VALID,167.295,VALID,22.8889,VALID,281,VALID,1.22123,
2006-12-28, 19:08:00,VALID,917.822,VALID,0,VALID,94.5107,VALID,138.207,VALID,22.905,VALID,300,VALID,0.80907,
2006-12-28, 19:09:00,VALID,917.8,VALID,0,VALID,94.601,VALID,116.913,VALID,22.9085,VALID,277,VALID,0.95206,
2006-12-28, 19:10:00,VALID,917.789,VALID,0,VALID,93.969,VALID,106.657,VALID,22.8243,VALID,241,VALID,1.06289,
2006-12-28, 19:11:00,VALID,917.777,VALID,0,VALID,94.4866,VALID,102.31,VALID,22.7917,VALID,277,VALID,0.919336,
2006-12-28, 19:12:00,VALID,917.763,VALID,0,VALID,94.479,VALID,99.5756,VALID,22.7755,VALID,250,VALID,0.789418,
2006-12-28, 19:13:00,VALID,917.735,VALID,0,VALID,94.8719,VALID,101.732,VALID,22.7306,VALID,287,VALID,0.890443,
2006-12-28, 19:14:00,VALID,917.713,VALID,0,VALID,95.1427,VALID,96.9436,VALID,22.7341,VALID,272,VALID,0.325945,
2006-12-28, 19:15:00,VALID,917.682,VALID,0,VALID,95.0397,VALID,88.7079,VALID,22.7212,VALID,274,VALID,0.724019,
2006-12-28, 19:16:00,VALID,917.672,VALID,0,VALID,95.1262,VALID,79.2326,VALID,22.6727,VALID,276,VALID,1.33169,
2006-12-28, 19:17:00,VALID,917.661,VALID,0,VALID,95.5789,VALID,68.2969,VALID,22.6469,VALID,275,VALID,1.23958,
2006-12-28, 19:18:00,VALID,917.63,VALID,0,VALID,95.5662,VALID,62.3706,VALID,22.6275,VALID,267,VALID,1.22153,
2006-12-28, 19:19:00,VALID,917.617,VALID,0,VALID,95.247,VALID,68.8573,VALID,22.54,VALID,258,VALID,1.14626,
2006-12-28, 19:20:00,VALID,917.635,VALID,0,VALID,95.5217,VALID,77.6364,VALID,22.4437,VALID,239,VALID,1.01962,
2006-12-28, 19:21:00,VALID,917.634,VALID,0,VALID,95.9298,VALID,96.8417,VALID,22.3923,VALID,252,VALID,0.790365,
2006-12-28, 19:22:00,VALID,917.618,VALID,0,VALID,95.6933,VALID,105.502,VALID,22.2884,VALID,301,VALID,1.46035,
2006-12-28, 19:23:00,VALID,917.639,VALID,0,VALID,96.2465,VALID,110.206,VALID,22.1762,VALID,271,VALID,1.16497,
2006-12-28, 19:24:00,VALID,917.619,VALID,0,VALID,96.2083,VALID,102.174,VALID,22.0564,VALID,265,VALID,1.32584,
2006-12-28, 19:25:00,VALID,917.602,VALID,0,VALID,97.2612,VALID,105.74,VALID,22.0115,VALID,263,VALID,0.957031,
2006-12-28, 19:26:00,VALID,917.601,VALID,0,VALID,97.5969,VALID,109.441,VALID,21.9953,VALID,271,VALID,1.40799,
2006-12-28, 19:27:00,VALID,917.575,VALID,0,VALID,97.6211,VALID,105.094,VALID,21.9668,VALID,272,VALID,1.90978,
2006-12-28, 19:28:00,VALID,917.588,VALID,0,VALID,97.9263,VALID,118.747,VALID,21.931,VALID,246,VALID,1.20673,
2006-12-28, 19:29:00,VALID,917.572,VALID,0,VALID,97.9631,VALID,118.441,VALID,21.8686,VALID,283,VALID,1.62128,
2006-12-28, 19:30:00,VALID,917.57,VALID,0,VALID,98.1399,VALID,112.226,VALID,21.853,VALID,265,VALID,1.7153,
2006-12-28, 19:31:00,VALID,917.546,VALID,0,VALID,97.4748,VALID,102.479,VALID,21.7531,VALID,277,VALID,1.89602,
2006-12-28, 19:32:00,VALID,917.541,VALID,0,VALID,97.9809,VALID,98.7775,VALID,21.6727,VALID,283,VALID,2.3471,
2006-12-28, 19:33:00,VALID,917.54,VALID,0,VALID,97.9072,VALID,94.7191,VALID,21.5952,VALID,266,VALID,2.29916,
2006-12-28, 19:34:00,VALID,917.532,VALID,0,VALID,98.2404,VALID,98.9133,VALID,21.4693,VALID,274,VALID,2.367,
2006-12-28, 19:35:00,VALID,917.53,VALID,0,VALID,98.5074,VALID,100.204,VALID,21.3565,VALID,262,VALID,2.28292,
2006-12-28, 19:36:00,VALID,917.52,VALID,0.2,VALID,99.0949,VALID,110.375,VALID,21.2605,VALID,277,VALID,2.54036,
2006-12-28, 19:37:00,VALID,917.535,VALID,0.2,VALID,99.6188,VALID,112.668,VALID,21.1986,VALID,276,VALID,2.04668,
2006-12-28, 19:38:00,VALID,917.538,VALID,0.2,VALID,99.6417,VALID,104.092,VALID,21.1082,VALID,273,VALID,2.46113,
2006-12-28, 19:39:00,VALID,917.545,VALID,0.2,VALID,99.2869,VALID,85.1079,VALID,20.9486,VALID,251,VALID,1.63863,
2006-12-28, 19:40:00,VALID,917.529,VALID,0,VALID,99.6035,VALID,80.1156,VALID,20.82,VALID,247,VALID,1.61797,
2006-12-28, 19:41:00,VALID,917.544,VALID,0.2,VALID,99.9888,VALID,92.4946,VALID,20.798,VALID,273,VALID,2.05859,
2006-12-28, 19:42:00,VALID,917.521,VALID,0.2,VALID,100,VALID,105.383,VALID,20.7848,VALID,273,VALID,2.18586,
2006-12-28, 19:43:00,VALID,917.491,VALID,0.2,VALID,100,VALID,98.2001,VALID,20.7686,VALID,263,VALID,1.66349,
2006-12-28, 19:44:01,VALID,917.515,VALID,0.2,VALID,100,VALID,101.647,VALID,20.7145,VALID,183,VALID,1.61646,
2006-12-28, 19:45:00,VALID,917.511,VALID,0.2,VALID,100,VALID,107.387,VALID,20.7051,VALID,269,VALID,2.32752,
2006-12-28, 19:46:00,VALID,917.489,VALID,0.4,VALID,100,VALID,106.096,VALID,20.5827,VALID,276,VALID,2.92242,
2006-12-28, 19:47:00,VALID,917.499,VALID,0.2,VALID,100,VALID,100.968,VALID,20.5442,VALID,198,VALID,1.231,
2006-12-28, 19:48:00,VALID,917.484,VALID,0.4,VALID,100,VALID,106.877,VALID,20.4826,VALID,259,VALID,2.43914,
2006-12-28, 19:49:00,VALID,917.473,VALID,0.2,VALID,100,VALID,113.381,VALID,20.4476,VALID,271,VALID,2.1782,
2006-12-28, 19:50:00,VALID,917.467,VALID,0.2,VALID,100,VALID,116.964,VALID,20.4186,VALID,268,VALID,2.10996,
2006-12-28, 19:51:00,VALID,917.467,VALID,0.4,VALID,100,VALID,118.934,VALID,20.4124,VALID,278,VALID,1.70391,
2006-12-28, 19:52:00,VALID,917.448,VALID,0.4,VALID,100,VALID,115.521,VALID,20.4092,VALID,275,VALID,1.32754,
2006-12-28, 19:53:00,VALID,917.432,VALID,0.2,VALID,100,VALID,113.364,VALID,20.4221,VALID,246,VALID,1.24521,
2006-12-28, 19:54:00,VALID,917.413,VALID,0.2,VALID,100,VALID,119.63,VALID,20.3481,VALID,251,VALID,1.71982,
2006-12-28, 19:55:00,VALID,917.382,VALID,0.2,VALID,100,VALID,125.047,VALID,20.3739,VALID,274,VALID,2.57386,
2006-12-28, 19:56:00,VALID,917.38,VALID,0.2,VALID,100,VALID,125.539,VALID,20.3707,VALID,274,VALID,1.85556,
2006-12-28, 19:57:00,VALID,917.369,VALID,0.4,VALID,100,VALID,117.27,VALID,20.3811,VALID,277,VALID,2.16787,
2006-12-28, 19:58:00,VALID,917.366,VALID,0.2,VALID,100,VALID,107.709,VALID,20.364,VALID,277,VALID,1.55678,
2006-12-28, 19:59:00,VALID,917.363,VALID,0.4,VALID,100,VALID,112.26,VALID,20.3518,VALID,275,VALID,2.22986,
2006-12-28, 20:00:00,VALID,917.363,VALID,0.2,VALID,100,VALID,114.536,VALID,20.2867,VALID,256,VALID,2.96112,
2006-12-28, 20:01:01,VALID,917.345,VALID,0.4,VALID,100,VALID,112.209,VALID,20.1611,VALID,266,VALID,2.8776,
2006-12-28, 20:02:00,VALID,917.349,VALID,0.4,VALID,100,VALID,119.613,VALID,20.1417,VALID,254,VALID,2.08184,
2006-12-28, 20:03:00,VALID,917.346,VALID,0.4,VALID,100,VALID,125.013,VALID,20.139,VALID,273,VALID,1.60883,
2006-12-28, 20:04:00,VALID,917.357,VALID,0.4,VALID,100,VALID,127.458,VALID,20.178,VALID,273,VALID,1.38009,
2006-12-28, 20:05:00,VALID,917.367,VALID,0,VALID,100,VALID,129.615,VALID,20.2133,VALID,280,VALID,1.76441,
2006-12-28, 20:06:00,VALID,917.356,VALID,0.2,VALID,100,VALID,120.802,VALID,20.1839,VALID,275,VALID,1.94752,
2006-12-28, 20:07:01,VALID,917.372,VALID,0.2,VALID,100,VALID,104.975,VALID,20.1619,VALID,249,VALID,1.76829,
2006-12-28, 20:08:00,VALID,917.343,VALID,0.2,VALID,100,VALID,109.849,VALID,20.1589,VALID,275,VALID,2.25472,
2006-12-28, 20:09:00,VALID,917.34,VALID,0,VALID,100,VALID,109.153,VALID,20.1333,VALID,275,VALID,1.96522,
2006-12-28, 20:10:00,VALID,917.33,VALID,0.2,VALID,100,VALID,109.374,VALID,20.1303,VALID,268,VALID,2.33866,
2006-12-28, 20:11:00,VALID,917.323,VALID,0,VALID,100,VALID,102.004,VALID,20.0079,VALID,239,VALID,1.2872,
2006-12-28, 20:12:01,VALID,917.315,VALID,0.2,VALID,100,VALID,91.5267,VALID,20.0012,VALID,264,VALID,1.8859,
2006-12-28, 20:13:00,VALID,917.286,VALID,0,VALID,100,VALID,89.6758,VALID,20.0136,VALID,264,VALID,1.63972,
2006-12-28, 20:14:00,VALID,917.271,VALID,0.2,VALID,100,VALID,87.3154,VALID,19.9781,VALID,275,VALID,2.55569,
2006-12-28, 20:15:00,VALID,917.267,VALID,0.2,VALID,100,VALID,94.0908,VALID,19.9652,VALID,272,VALID,2.26804,
2006-12-28, 20:16:00,VALID,917.248,VALID,0.2,VALID,100,VALID,98.2511,VALID,20.0044,VALID,265,VALID,2.1915,
2006-12-28, 20:17:01,VALID,917.233,VALID,0.2,VALID,100,VALID,88.3343,VALID,19.9818,VALID,229,VALID,1.54972,
2006-12-28, 20:18:00,VALID,917.216,VALID,0.2,VALID,100,VALID,86.3645,VALID,19.9111,VALID,268,VALID,2.05895,
2006-12-28, 20:19:00,VALID,917.214,VALID,0.2,VALID,100,VALID,83.9362,VALID,19.915,VALID,260,VALID,2.05729,
2006-12-28, 20:20:00,VALID,917.187,VALID,0.2,VALID,100,VALID,85.1249,VALID,19.8597,VALID,267,VALID,2.0218,
2006-12-28, 20:21:00,VALID,917.159,VALID,0.4,VALID,100,VALID,97.3341,VALID,19.8855,VALID,275,VALID,1.81197,
2006-12-28, 20:22:00,VALID,917.13,VALID,0.2,VALID,100,VALID,101.002,VALID,19.9342,VALID,274,VALID,1.96652,
2006-12-28, 20:23:00,VALID,917.111,VALID,0.2,VALID,100,VALID,94.1927,VALID,19.9575,VALID,271,VALID,1.11179,
2006-12-28, 20:24:00,VALID,917.092,VALID,0.2,VALID,100,VALID,92.7153,VALID,19.9242,VALID,232,VALID,0.989769,
2006-12-28, 20:25:00,VALID,917.071,VALID,0.2,VALID,100,VALID,98.336,VALID,19.8567,VALID,276,VALID,1.50167,
2006-12-28, 20:26:01,VALID,917.035,VALID,0.2,VALID,100,VALID,103.243,VALID,19.8984,VALID,275,VALID,1.83327,
2006-12-28, 20:27:00,VALID,917.023,VALID,0.2,VALID,100,VALID,111.496,VALID,19.9379,VALID,260,VALID,1.26684,
2006-12-28, 20:28:01,VALID,917.006,VALID,0.2,VALID,100,VALID,114.094,VALID,19.9471,VALID,251,VALID,1.33018,
2006-12-28, 20:29:00,VALID,916.972,VALID,0.4,VALID,100,VALID,113.839,VALID,19.8274,VALID,246,VALID,1.32745,
2006-12-28, 20:30:00,VALID,916.952,VALID,0.2,VALID,100,VALID,119.545,VALID,19.8184,VALID,271,VALID,1.91479,
2006-12-28, 20:31:01,VALID,916.932,VALID,0.2,VALID,100,VALID,130.481,VALID,19.8669,VALID,265,VALID,1.66315,
2006-12-28, 20:32:01,VALID,916.915,VALID,0.2,VALID,100,VALID,133.52,VALID,19.9317,VALID,249,VALID,1.57934,
2006-12-28, 20:33:00,VALID,916.867,VALID,0.2,VALID,100,VALID,133.13,VALID,19.8413,VALID,259,VALID,1.74592,
2006-12-28, 20:34:00,VALID,916.851,VALID,0.2,VALID,100,VALID,121.379,VALID,19.8604,VALID,270,VALID,1.72736,
2006-12-28, 20:35:01,VALID,916.834,VALID,0,VALID,100,VALID,119.97,VALID,19.9088,VALID,282,VALID,1.0419,
2006-12-28, 20:36:00,VALID,916.83,VALID,0,VALID,100,VALID,116.013,VALID,19.9478,VALID,263,VALID,1.44158,
2006-12-28, 20:37:00,VALID,916.823,VALID,0.2,VALID,100,VALID,124.079,VALID,19.9352,VALID,242,VALID,1.12376,
2006-12-28, 20:38:01,VALID,916.792,VALID,0,VALID,100,VALID,135.15,VALID,19.8865,VALID,258,VALID,2.67397,
2006-12-28, 20:39:01,VALID,916.795,VALID,0,VALID,100,VALID,139.99,VALID,19.8537,VALID,228,VALID,1.56428,
2006-12-28, 20:40:01,VALID,916.778,VALID,0.2,VALID,100,VALID,141.026,VALID,19.7827,VALID,253,VALID,1.9998,
2006-12-28, 20:41:01,VALID,916.753,VALID,0,VALID,100,VALID,141.026,VALID,19.7867,VALID,260,VALID,2.08059,
2006-12-28, 20:42:00,VALID,916.735,VALID,0.2,VALID,100,VALID,145.763,VALID,19.8254,VALID,267,VALID,2.25034,
2006-12-28, 20:43:00,VALID,916.729,VALID,0,VALID,100,VALID,149.211,VALID,19.8736,VALID,250,VALID,0.826079,
2006-12-28, 20:44:00,VALID,916.715,VALID,0,VALID,100,VALID,136.458,VALID,19.9128,VALID,260,VALID,0.496185,
2006-12-28, 20:45:00,VALID,916.692,VALID,0,VALID,100,VALID,132.009,VALID,19.9481,VALID,254,VALID,1.38449,
2006-12-28, 20:46:00,VALID,916.663,VALID,0.2,VALID,100,VALID,124.028,VALID,19.8872,VALID,240,VALID,1.50868,
2006-12-28, 20:47:00,VALID,916.646,VALID,0,VALID,100,VALID,116.047,VALID,19.8706,VALID,269,VALID,1.3609,
2006-12-28, 20:48:00,VALID,916.624,VALID,0,VALID,100,VALID,128.443,VALID,19.9456,VALID,273,VALID,1.29855,
2006-12-28, 20:49:00,VALID,916.603,VALID,0,VALID,100,VALID,145.763,VALID,20,VALID,281,VALID,0.939732,
2006-12-28, 20:50:01,VALID,916.588,VALID,0.2,VALID,100,VALID,138.19,VALID,20.1192,VALID,283,VALID,0.998183,
2006-12-28, 20:51:00,VALID,916.564,VALID,0,VALID,100,VALID,140.839,VALID,20.1488,VALID,261,VALID,1.20259,
2006-12-28, 20:52:00,VALID,916.554,VALID,0,VALID,100,VALID,147.139,VALID,20.113,VALID,260,VALID,1.06889,
2006-12-28, 20:53:01,VALID,916.541,VALID,0,VALID,100,VALID,130.515,VALID,20.0005,VALID,219,VALID,1.22824,
2006-12-28, 20:54:01,VALID,916.513,VALID,0,VALID,100,VALID,121.566,VALID,20.0323,VALID,279,VALID,1.43981,
2006-12-28, 20:55:00,VALID,916.481,VALID,0,VALID,100,VALID,120.088,VALID,20.1264,VALID,283,VALID,1.52401,
2006-12-28, 20:56:00,VALID,916.451,VALID,0,VALID,100,VALID,131.924,VALID,20.1194,VALID,283,VALID,1.43264,
2006-12-28, 20:57:00,VALID,916.434,VALID,0.2,VALID,100,VALID,144.779,VALID,20.1356,VALID,284,VALID,1.254,
2006-12-28, 20:58:01,VALID,916.408,VALID,0,VALID,100,VALID,158.992,VALID,20.2002,VALID,281,VALID,1.0827,
2006-12-28, 20:59:01,VALID,916.391,VALID,0,VALID,100,VALID,169.265,VALID,20.2386,VALID,227,VALID,0.551562,
2006-12-28, 21:00:00,VALID,916.377,VALID,0,VALID,100,VALID,149.839,VALID,20.1388,VALID,230,VALID,1.12264,
2006-12-28, 21:01:00,VALID,916.361,VALID,0,VALID,100,VALID,123.128,VALID,20.0621,VALID,276,VALID,1.50401,
2006-12-28, 21:02:01,VALID,916.342,VALID,0,VALID,100,VALID,113.585,VALID,20.0323,VALID,274,VALID,1.60411,
2006-12-28, 21:03:00,VALID,916.341,VALID,0,VALID,100,VALID,110.647,VALID,20.0589,VALID,274,VALID,1.84086,
2006-12-28, 21:04:00,VALID,916.336,VALID,0,VALID,100,VALID,103.108,VALID,20.0646,VALID,257,VALID,1.32617,
2006-12-28, 21:05:00,VALID,916.32,VALID,0,VALID,100,VALID,95.2625,VALID,19.9997,VALID,266,VALID,1.77418,
2006-12-28, 21:06:00,VALID,916.302,VALID,0,VALID,100,VALID,90.0154,VALID,19.8964,VALID,274,VALID,2.5142,
2006-12-28, 21:07:00,VALID,916.285,VALID,0,VALID,100,VALID,86.2117,VALID,19.89,VALID,269,VALID,1.93099,
2006-12-28, 21:08:00,VALID,916.276,VALID,0,VALID,100,VALID,88.1305,VALID,19.891,VALID,245,VALID,1.69549,
2006-12-28, 21:09:00,VALID,916.261,VALID,0,VALID,100,VALID,97.0624,VALID,19.8418,VALID,217,VALID,1.121,
2006-12-28, 21:10:01,VALID,916.261,VALID,0,VALID,100,VALID,99.2699,VALID,19.8838,VALID,228,VALID,1.06994,
2006-12-28, 21:11:00,VALID,916.263,VALID,0,VALID,100,VALID,100.9,VALID,19.9198,VALID,260,VALID,0.885417,
2006-12-28, 21:12:01,VALID,916.248,VALID,0,VALID,100,VALID,95.0077,VALID,19.9573,VALID,268,VALID,1.10309,
2006-12-28, 21:13:00,VALID,916.233,VALID,0,VALID,100,VALID,91.4248,VALID,19.9702,VALID,270,VALID,1.67551,
2006-12-28, 21:14:00,VALID,916.235,VALID,0,VALID,100,VALID,86.8569,VALID,19.9521,VALID,267,VALID,1.9362,
2006-12-28, 21:15:00,VALID,916.227,VALID,0,VALID,100,VALID,83.3589,VALID,19.929,VALID,263,VALID,1.02344,
2006-12-28, 21:16:00,VALID,916.217,VALID,0,VALID,100,VALID,81.1514,VALID,19.9228,VALID,271,VALID,1.16206,
2006-12-28, 21:17:00,VALID,916.232,VALID,0,VALID,100,VALID,88.4362,VALID,19.965,VALID,277,VALID,0.837003,
2006-12-28, 21:18:00,VALID,916.232,VALID,0,VALID,100,VALID,87.7739,VALID,20.0037,VALID,284,VALID,0.628089,
2006-12-28, 21:19:00,VALID,916.221,VALID,0,VALID,100,VALID,78.825,VALID,20.0653,VALID,277,VALID,1.41815,
2006-12-28, 21:20:00,VALID,916.223,VALID,0,VALID,100,VALID,72.9666,VALID,19.9814,VALID,277,VALID,1.56463,
2006-12-28, 21:21:00,VALID,916.222,VALID,0,VALID,100,VALID,71.4044,VALID,19.9396,VALID,262,VALID,1.52575,
2006-12-28, 21:22:00,VALID,916.215,VALID,0,VALID,100,VALID,70.4704,VALID,19.8165,VALID,253,VALID,2.16673,
2006-12-28, 21:23:01,VALID,916.211,VALID,0,VALID,100,VALID,66.1234,VALID,19.7002,VALID,250,VALID,1.70195,
2006-12-28, 21:24:00,VALID,916.228,VALID,0,VALID,100,VALID,64.5272,VALID,19.6871,VALID,271,VALID,2.59245,
2006-12-28, 21:25:01,VALID,916.223,VALID,0,VALID,100,VALID,61.3857,VALID,19.665,VALID,268,VALID,2.24635,
2006-12-28, 21:26:01,VALID,916.253,VALID,0,VALID,100,VALID,58.3461,VALID,19.5845,VALID,212,VALID,1.48609,
2006-12-28, 21:28:00,VALID,916.269,VALID,0,VALID,100,VALID,45.1011,VALID,19.5426,VALID,207,VALID,1.45009,
2006-12-28, 21:29:00,VALID,916.281,VALID,0,VALID,100,VALID,43.8615,VALID,19.4936,VALID,235,VALID,1.60863,